DIRECTV 15 (40663 NORAD) Tracking and Keplerian Element Data

This shows tracking and keplerian element data for the satellite.

Feedback or suggestion? Click here.




ElementValue
Catalog40663
NameDIRECTV 15
Epoch Orbit3546
Epoch Day34.66315697
Epoch Year2025
RAAN91.6311
Inclination0.0217
Eccentricity7.14E-05
Argument of Perigee106.315
Mean Anonmoly71.9845
Mean Motion1.00269164
Decay Rate-9.7E-07
L11 40663U 15026A 25034.66315697 -.00000097 00000+0 00000+0 0 9995
L22 40663 0.0217 91.6311 0000714 106.3150 71.9845 1.00269164 35461



Live tracking and technical data element details for DIRECTV 15 (NORAD 40663). DIRECTV 15 can be tracked NOW for your location showing map with azimuth and elevation plus other details from your city location.







IsCatalogInMostPopularTable: catalog: 40663, numindb: 971
Update: records affected: 1



GetName: 40663 DIRECTV 15

Hit Count: updated at: Mon, 28 Apr 2025 08:21:25 GMT